Home > Weather > Red Deer > Past weeks

Flag for Canada Weather for the Past 2 Weeks in Red Deer, Alberta, Canada

Now
74 °F

Mild.


Feels Like: 75 °F
Forecast: 47 / 80 °F
Wind: 7 mph from West

Location: Sundre

Current Time: May 4, 2016 at 3:42:42 PM

Latest Report: May 4, 2016 at 3:00 PM


Visibility: N/A

Pressure: 29.82 "Hg (27.01 "Hg at 857m altitude)

Humidity: 19%

Dew Point: 29 °F

Location of Red DeerLocation

Historic Weather in Red Deer — Graph

°F

Red Deer Temperature Yesterday

Maximum temperature yesterday: 81 °F (at 7:00 PM)
Minimum temperature yesterday: 33 °F (at 6:00 AM)
Average temperature yesterday: 59 °F

High & Low Weather Summary for the Past Weeks

 TemperatureHumidityPressure
High81 °F (May 3, 7:00 PM)100% (Apr 24, 8:00 AM)30.37 "Hg (Apr 24, 8:00 AM)
Low25 °F (May 1, 6:00 AM)11% (May 3, 7:00 PM)29.83 "Hg (May 4, 12:00 PM)
Average47 °F59%30.04 "Hg
* Reported Apr 19 12:00 Noon — May 4 12:00 Noon, Red Deer, Weather by CustomWeather, © 2016

Note: Actual official high and low records may vary slightly from our data, if they occured in-between our weather recording intervals... More about our weather records

Advertising

Red Deer Weather History for the Previous 24 Hours

Scroll right to see more
 ConditionsComfort  
Time TempWeatherWind HumidityBarometerVisibility
12:00 PM
Wed, May 4
75 °FMild.8 mph20%29.83 "HgN/A
11:00 AM73 °FMild.7 mph20%29.84 "HgN/A
10:00 AM69 °FMild.6 mph29%29.84 "HgN/A
9:00 AM56 °FRefreshingly cool.1 mph43%29.89 "HgN/A
8:00 AM47 °FCool.1 mph55%29.90 "HgN/A
7:00 AM33 °FChilly.2 mph80%29.92 "HgN/A
6:00 AM33 °FChilly.2 mph76%29.92 "HgN/A
5:00 AM35 °FChilly.3 mph72%29.92 "HgN/A
4:00 AM35 °FChilly.2 mph74%29.92 "HgN/A
3:00 AM37 °FChilly.1 mph69%29.93 "HgN/A
2:00 AM39 °FChilly.1 mph64%29.93 "HgN/A
1:00 AM40 °FQuite cool.2 mph60%29.92 "HgN/A
12:00 AM44 °FQuite cool.1 mph52%29.91 "HgN/A
11:00 PM
Tue, May 3
50 °FCool.5 mph39%29.90 "HgN/A
10:00 PM58 °FRefreshingly cool.2 mph28%29.88 "HgN/A
9:00 PM69 °FMild.7 mph15%29.86 "HgN/A
8:00 PM78 °FPleasantly warm.7 mph12%29.85 "HgN/A
7:00 PM81 °FPleasantly warm.8 mph11%29.88 "HgN/A
6:00 PM81 °FPleasantly warm.9 mph17%29.89 "HgN/A
5:00 PM80 °FPleasantly warm.13 mph16%29.93 "HgN/A
4:00 PM80 °FPleasantly warm.10 mph18%29.95 "HgN/A
3:00 PM78 °FPleasantly warm.6 mph17%29.98 "HgN/A
Weather by CustomWeather, © 2016

See weather overviewHow to use our weather pages